Погода в Витиме

Погода в Витиме : погода сейчас, прогноз погоды и архив. Всё, что Вы хотите узнать о погоде в Витиме!

Хотите узнать прогноз погоды в Витиме? Тогда Вам сюда: Погода в Витиме

Поиск расширенной информации на нашем сайте:

Другие новости

Новости СМИ2

Главная страница сайта

Новости сайта

03.07.2017

Напоминаем, что на нашем специализированном сайте Метеоцентр.Азия вы можете получить высокодетализированные автоматические прогнозы погоды по пунктам России, СНГ и мира в авиационном формате (включающие направление и скорость ветра, видимость, явления погоды, количество и форму облачности, нижнюю и верхнюю границу облачности).


Погода в Витиме - сегодня

Время (UTC), дата Ветер
(°,м/с) 
Видим.   Явления Облачность Т
(°С)
Тd
(°С)
f(%) Тe
(°С)
Pmin
(гПа)
dP
(гПа)
Po
(мм)
O2
(г/м3)
Тmin Tmax R s Состояние
почвы
06 16.04.18 180 (Ю) 20000 м  {ливн. осадки}  6/5 600 м кучево-дожд., верхняя 
[Cb cap|Ci fib]
+3.5 -2.8 63 +2  1009.6  -1.3  740  295           
09 16.04.18 240 (ЮЗ) 20000 м    8/5 600 м кучево-дожд., средняя, верхняя 
[Cb cap|Ac trans|Ci fib]
+4 -5.5 50 +2  1009.1  -0.5  739  294           
12 16.04.18 тихо ()   20000 м    9/4 600 м кучево-дожд., средняя, верхняя 
[Cb cap|Ac lent|Ci fib]
+2.3 -4 63 +2  1008.8  -0.3  739  296    +5.2  0.0     
15 16.04.18 270 (З) 20000 м    9/3 600 м кучево-дожд., средняя 
[Cb cap|Ac trans]
-0.8 -4.3 77 -2  1009.4  0.3  739  299           
18 16.04.18 230 (ЮЗ) 20000 м    9/3 600 м кучево-дожд., средняя, верхняя 
[Cb cap|Ac trans|Ci fib]
-1 -3.2 85 -3  1009.1  -0.4  739  299           
21 16.04.18 150 (ЮВ) 20000 м    9/0 средняя, верхняя 
[Ac lent|Ci fib]
-4.1 -5.6 89 -6  1009.3  739  303           
00 17.04.18 тихо ()   20000 м    10/0 средняя, верхняя 
[Ac lent|Cs]
-1 -3.9 81 -1  1009.1  739  299  -4.2      66  равномерный
мокрый или
старый снег
100% 
03 17.04.18 180 (Ю) 20000 м    9/4 600 м кучево-дожд., средняя, верхняя 
[Cb cap|Ac lent|Ci fib]
+5.9 -2.4 55 +5  1007.1  -1.4  738  291           
06 17.04.18 210 (ЮЗ) 5{11}  20000 м    9/8 600 м кучево-дожд., средняя, верхняя 
[Cb cap|Ac lent|Ci fib]
+8.8 -4.3 39 +7  1004.6  -2.1  736  288           
09 17.04.18 240 (ЮЗ) 20000 м    10/6 600 м кучево-дожд., средняя, верхняя 
[Cb cap|Ac lent|Cs]
+9.4 -4.5 37 +8  1003.1  -1.4  735  287           
12 17.04.18 210 (ЮЗ) 20000 м    10/5 600 м кучево-дожд., средняя, верхняя 
[Cb cap|Ac lent|Cs]
+6 -3.7 50 +6  1002.1  -1.3  734  290    +10       
15 17.04.18 200 (Ю) 20000 м    9/3 600 м кучево-дожд., средняя, верхняя 
[Cb cap|Ac lent|Cs]
+0.6 -2.3 81 +1  1002.5  -0.1  734  295           
18 17.04.18 тихо ()   20000 м    6/3 600 м кучево-дожд., средняя, верхняя 
[Cb cap|Ac lent|Cs]
-0.2 -2.6 84 -0  1000.4  -2.1  733  296           
21 17.04.18 200 (Ю) 20000 м    10/3 600 м кучево-дожд., средняя, верхняя 
[Cb cap|Ac lent|Cs]
+3.4 -2.6 65 +2  999.5  -0.5  732  292           
00 18.04.18 210 (ЮЗ) 20000 м    10/3 600 м кучево-дожд., средняя, верхняя 
[Cb cap|Ac lent|Cs]
+3.9 -2.6 63 +3  1000.4  0.9  733  291  -1      56  равномерный
мокрый или
старый снег
100% 
03 18.04.18 230 (ЮЗ) 20000 м  в посл. час ливневой снег  10/6 600 м кучево-дожд., средняя 
[Cb cap|Ac As]
+3 -3.8 61 +2  1001.6  1.1  734  293           
06 18.04.18 тихо ()   4000 м  слаб. ливневой снег  10/8 600 м кучево-дожд., средняя 
[Cb cap|Ac As]
+0.3 -0.5 94 1000.6  -1.2  733  295           
09 18.04.18 210 (ЮЗ) 20000 м  {ливн. осадки}  9/8 600 м кучево-дожд., верхняя 
[Cb cap|Cc]
+0.9 -1.1 86 -1  1001.5  0.9  734  295           
15 18.04.18 240 (ЮЗ) 5{12}  20000 м    4/0 верхняя 
[Ci fib]
-1.2 -9.6 53 -4  1008.2  3.8  738  300           
18 18.04.18 210 (ЮЗ) 3{12}  20000 м    4/0 средняя, верхняя 
[Ac trans|Ci fib]
-1.7 -9.1 57 -4  1010.1  1.9  740  301           
21 18.04.18 200 (Ю) 6{10}  20000 м    3/0 верхняя 
[Ci fib]
-3.8 -8.7 69 -8  1011.6  1.1  741  303           
00 19.04.18 210 (ЮЗ) 4{10}  20000 м    4/1 1000 м верхняя 
[Cu med, cong|Ci fib]
-2.7 -7.2 71 -6  1012.9  1.5  742  303  -3.9      54  равномерный
мокрый или
старый снег
100% 
03 19.04.18 260 (З) 6{13}  20000 м    4/3 1000 м верхняя 
[Cu hum|Ci fib]
+1.5 -10.5 40 -2  1012.5  742  298           
06 19.04.18 240 (ЮЗ) 6{13}  20000 м    9/6 600 м кучево-дожд., верхняя 
[Cb cap|Ci fib]
+1.8 -10.5 40 -1  1012.4  -0.1  742  298           
09 19.04.18 240 (ЮЗ) 5{12}  20000 м    9/5 600 м кучево-дожд., верхняя 
[Cb cap|Ci fib]
+1.7 -9.6 43 -1  1012.6  0.2  742  298           
Время (UTC), дата Ветер
(°,м/с) 
Видим.   Явления Облачность Т
(°С)
Тd
(°С)
f(%) Тe
(°С)
Pmin
(гПа)
dP
(гПа)
Po
(мм)
O2
(г/м3)
Тmin Tmax R s Состояние
почвы

Для получения пояснительной информации подведите курсор к названию столбца.

ПОГОДА в Витиме - архив

Всё, что Вы хотите узнать о погоде в Витиме - удобно и подробно!

Выберите нужную дату (начиная с 1 января 2015* года) и нажмите кнопку "Найти".
Будут отображены архивные сводки погоды по пункту Витим, начиная с указанной даты.


Отображать данные в формате CSV (для использования в таблицах Excel)


Внимание! Наш архив погоды предназначен исключительно для личного некоммерческого использования в познавательных целях. Если Вам необходимы официальные справки о состоянии погоды (для производственных, юридических, коммерческих и т.п. целей), обращайтесь в органы Росгидромета.

*Примечание: данная дата относится к архиву по метеостанциям СССР (Россия, СНГ, Балтия).
Архив по метеостанциям Зарубежной Европы и Азии (кроме Китая) хранится 10 дней, по другим регионам земного шара (Китай, Африка, Америка, Австралия, Океания) - 1 день.

Витим - район местоположения метеостанции


Название, широта, долгота, высота метеостанции:
Витим 59.4°ш. 112.6°д. 190 м над ур. моря [Российская Федерация]

Дополнительная информация

В oтличие oт бoльшинства пoгoдных сайтoв мы публикуем пoдрoбную метеoинфoрмацию в детальнoм прoфессиoнальнoм фoрмате.

Характеристики температуры и влажнoсти вoздуха измеряются на высoте 2 м в тени вдали oт зданий и деревьев.
Скoрoсть ветра измеряется на высoте 10 м (на урoвне рoста челoвека скoрoсть ветра ниже в 1.5-2 раза). Если метеoстанция нахoдится в гoрoде или в лесу, тo скoрoсть ветра занижена на 2-4 м/с пo сравнению с oткрытым местoм. Скoрoсть ветра над акватoриями крупных рек и oзёр, а также на вершинах хoлмoв на 2-5 м/с выше, чем в oбычных услoвиях.
Атмoсфернoе давление в разных тoчках местнoсти мoжет значительнo oтличаться oт давления на метеoстанции, в зависимoсти oт услoвий рельефа (при пoдъёме на 10 м давление пoнижается примернo на 1 мм рт.ст.).